View from above orbital plane
|
View from above satellite
|
Ground track
|
The orbit data is extracted from the following two-line orbital elements,
1 28480U 04046B 21018.82203905 -.00000014 00000-0 10112-4 0 9992
2 28480 98.0592 42.8311 0140864 307.5255 235.6708 14.25737106841129
Epoch (UTC): | 18 January 2021 19:43:44 |
Eccentricity: | 0.0140864 |
inclination: | 98.0592° |
perigee height: | 705 km |
apogee height: | 907 km |
right ascension of ascending node: | 42.8311° |
argument of perigee: | 307.5255° |
revolutions per day: | 14.25737106 |
mean anomaly at epoch: | 235.6708° |
orbit number at epoch: | 84112 |
The dashed part of the orbit path shows where the satellite is in the earth's shadow,
|
|